Time,TemperatureF,DewpointF,PressureIn,WindDirection,WindDirectionDegrees,WindSpeedMPH,WindSpeedGustMPH,Humidity,HourlyPrecipIn,Conditions,Clouds,dailyrainin,SoftwareType,DateUTC
2013-05-14 00:00:00,47.6,40.4,30.23,ENE,68,0.0,0.0,76,0.00,,,0.00,Wunderground v.1.15,2013-05-14 04:00:00,
2013-05-14 00:01:00,46.6,40.8,30.24,N/A,-737280,0.0,-999.0,80,0.00,,,0.00,Wunderground v.1.15,2013-05-14 04:01:00,
2013-05-14 00:02:00,47.6,40.7,30.23,ENE,68,0.0,0.0,77,0.00,,,0.00,Wunderground v.1.15,2013-05-14 04:02:00,
2013-05-14 00:06:00,47.4,40.6,30.23,ENE,68,0.0,0.0,77,0.00,,,0.00,Wunderground v.1.15,2013-05-14 04:06:00,
2013-05-14 00:08:00,47.3,40.8,30.23,ENE,68,0.0,0.0,78,0.00,,,0.00,Wunderground v.1.15,2013-05-14 04:08:00,
2013-05-14 00:10:00,47.3,40.8,30.23,ENE,68,0.0,0.0,78,0.00,,,0.00,Wunderground v.1.15,2013-05-14 04:10:00,
2013-05-14 00:11:00,46.6,40.8,30.24,N/A,-737280,0.0,-999.0,80,0.00,,,0.00,Wunderground v.1.15,2013-05-14 04:11:00,
2013-05-14 00:16:00,47.1,40.6,30.24,ENE,68,0.0,0.0,78,0.00,,,0.00,Wunderground v.1.15,2013-05-14 04:16:00,
2013-05-14 00:21:00,46.6,40.8,30.24,N/A,-737280,0.0,-999.0,80,0.00,,,0.00,Wunderground v.1.15,2013-05-14 04:21:00,
2013-05-14 00:22:00,46.9,40.7,30.23,ENE,68,0.0,0.0,79,0.00,,,0.00,Wunderground v.1.15,2013-05-14 04:22:00,
2013-05-14 00:26:00,46.6,40.8,30.24,N/A,-737280,0.0,-999.0,80,0.00,,,0.00,Wunderground v.1.15,2013-05-14 04:26:00,
2013-05-14 00:28:00,46.7,40.5,30.24,ENE,68,0.0,0.0,79,0.00,,,0.00,Wunderground v.1.15,2013-05-14 04:28:00,
2013-05-14 00:31:00,46.6,40.8,30.24,N/A,-737280,0.0,-999.0,80,0.00,,,0.00,Wunderground v.1.15,2013-05-14 04:31:00,
2013-05-14 00:34:00,46.5,41.0,30.24,ENE,68,0.0,0.0,81,0.00,,,0.00,Wunderground v.1.15,2013-05-14 04:34:00,
2013-05-14 00:36:00,46.6,40.8,30.24,N/A,-737280,0.0,-999.0,80,0.00,,,0.00,Wunderground v.1.15,2013-05-14 04:36:00,
2013-05-14 00:40:00,46.3,40.8,30.24,ENE,68,0.0,0.0,81,0.00,,,0.00,Wunderground v.1.15,2013-05-14 04:40:00,
2013-05-14 00:41:00,46.6,40.8,30.24,N/A,-737280,0.0,-999.0,80,0.00,,,0.00,Wunderground v.1.15,2013-05-14 04:41:00,
2013-05-14 00:46:00,46.0,40.8,30.24,ENE,68,0.0,0.0,82,0.00,,,0.00,Wunderground v.1.15,2013-05-14 04:46:00,
2013-05-14 00:51:00,45.5,40.9,30.24,N/A,-737280,0.0,-999.0,84,0.00,,,0.00,Wunderground v.1.15,2013-05-14 04:51:00,
2013-05-14 00:52:00,45.8,40.9,30.24,ENE,68,0.0,0.0,83,0.00,,,0.00,Wunderground v.1.15,2013-05-14 04:52:00,
2013-05-14 00:56:00,45.5,40.9,30.24,N/A,-737280,0.0,-999.0,84,0.00,,,0.00,Wunderground v.1.15,2013-05-14 04:56:00,
2013-05-14 00:58:00,45.6,41.0,30.24,ENE,68,0.0,0.0,84,0.00,,,0.00,Wunderground v.1.15,2013-05-14 04:58:00,
2013-05-14 01:01:00,45.5,40.9,30.24,N/A,-737280,0.0,-999.0,84,0.00,,,0.00,Wunderground v.1.15,2013-05-14 05:01:00,
2013-05-14 01:04:00,45.5,41.3,30.24,ENE,68,0.0,0.0,85,0.00,,,0.00,Wunderground v.1.15,2013-05-14 05:04:00,
2013-05-14 01:06:00,45.5,40.9,30.24,N/A,-737280,0.0,-999.0,84,0.00,,,0.00,Wunderground v.1.15,2013-05-14 05:06:00,
2013-05-14 01:10:00,45.6,41.4,30.24,ENE,68,0.0,0.0,85,0.00,,,0.00,Wunderground v.1.15,2013-05-14 05:10:00,
2013-05-14 01:11:00,45.5,40.9,30.24,N/A,-737280,0.0,-999.0,84,0.00,,,0.00,Wunderground v.1.15,2013-05-14 05:11:00,
2013-05-14 01:16:00,45.5,41.3,30.24,ENE,68,0.0,0.0,85,0.00,,,0.00,Wunderground v.1.15,2013-05-14 05:16:00,
2013-05-14 01:21:00,45.1,41.2,30.24,N/A,-737280,0.0,-999.0,86,0.00,,,0.00,Wunderground v.1.15,2013-05-14 05:21:00,
2013-05-14 01:22:00,45.3,41.1,30.24,ENE,68,0.0,0.0,85,0.00,,,0.00,Wunderground v.1.15,2013-05-14 05:22:00,
2013-05-14 01:26:00,45.1,41.2,30.24,N/A,-737280,0.0,-999.0,86,0.00,,,0.00,Wunderground v.1.15,2013-05-14 05:26:00,
2013-05-14 01:28:00,45.2,41.3,30.24,ENE,68,0.0,0.0,86,0.00,,,0.00,Wunderground v.1.15,2013-05-14 05:28:00,
2013-05-14 01:31:00,45.1,41.2,30.24,N/A,-737280,0.0,-999.0,86,0.00,,,0.00,Wunderground v.1.15,2013-05-14 05:31:00,
2013-05-14 01:34:00,45.0,41.4,30.24,ENE,68,0.0,0.0,87,0.00,,,0.00,Wunderground v.1.15,2013-05-14 05:34:00,
2013-05-14 01:36:00,45.1,41.2,30.24,N/A,-737280,0.0,-999.0,86,0.00,,,0.00,Wunderground v.1.15,2013-05-14 05:36:00,
2013-05-14 01:40:00,45.1,41.5,30.24,ENE,68,0.0,0.0,87,0.00,,,0.00,Wunderground v.1.15,2013-05-14 05:40:00,
2013-05-14 01:41:00,45.1,41.2,30.24,N/A,-737280,0.0,-999.0,86,0.00,,,0.00,Wunderground v.1.15,2013-05-14 05:41:00,
2013-05-14 01:46:00,45.2,41.9,30.24,ENE,68,0.0,0.0,88,0.00,,,0.00,Wunderground v.1.15,2013-05-14 05:46:00,
2013-05-14 01:51:00,45.0,41.4,30.24,N/A,-737280,0.0,-999.0,87,0.00,,,0.00,Wunderground v.1.15,2013-05-14 05:51:00,
2013-05-14 01:52:00,45.2,41.6,30.24,ENE,68,0.0,0.0,87,0.00,,,0.00,Wunderground v.1.15,2013-05-14 05:52:00,
2013-05-14 01:56:00,45.0,41.4,30.24,N/A,-737280,0.0,-999.0,87,0.00,,,0.00,Wunderground v.1.15,2013-05-14 05:56:00,
2013-05-14 01:58:00,45.1,41.5,30.24,ENE,68,0.0,0.0,87,0.00,,,0.00,Wunderground v.1.15,2013-05-14 05:58:00,
2013-05-14 02:01:00,45.0,41.4,30.24,N/A,-737280,0.0,-999.0,87,0.00,,,0.00,Wunderground v.1.15,2013-05-14 06:01:00,
2013-05-14 02:04:00,45.0,41.4,30.24,ENE,68,0.0,0.0,87,0.00,,,0.00,Wunderground v.1.15,2013-05-14 06:04:00,
2013-05-14 02:06:00,45.0,41.4,30.24,N/A,-737280,0.0,-999.0,87,0.00,,,0.00,Wunderground v.1.15,2013-05-14 06:06:00,
2013-05-14 02:10:00,45.0,41.4,30.24,ENE,68,0.0,0.0,87,0.00,,,0.00,Wunderground v.1.15,2013-05-14 06:10:00,
2013-05-14 02:11:00,45.0,41.4,30.24,N/A,-737280,0.0,-999.0,87,0.00,,,0.00,Wunderground v.1.15,2013-05-14 06:11:00,
2013-05-14 02:16:00,45.1,41.5,30.24,ENE,68,0.0,0.0,87,0.00,,,0.00,Wunderground v.1.15,2013-05-14 06:16:00,
2013-05-14 02:21:00,44.9,41.3,30.24,N/A,-737280,0.0,-999.0,87,0.00,,,0.00,Wunderground v.1.15,2013-05-14 06:21:00,
2013-05-14 02:22:00,45.1,41.5,30.24,ENE,68,0.0,0.0,87,0.00,,,0.00,Wunderground v.1.15,2013-05-14 06:22:00,
2013-05-14 02:26:00,44.9,41.3,30.24,N/A,-737280,0.0,-999.0,87,0.00,,,0.00,Wunderground v.1.15,2013-05-14 06:26:00,
2013-05-14 02:28:00,45.0,41.4,30.24,ENE,68,0.0,0.0,87,0.00,,,0.00,Wunderground v.1.15,2013-05-14 06:28:00,
2013-05-14 02:31:00,44.9,41.3,30.24,N/A,-737280,0.0,-999.0,87,0.00,,,0.00,Wunderground v.1.15,2013-05-14 06:31:00,
2013-05-14 02:34:00,44.8,41.2,30.24,ENE,68,0.0,0.0,87,0.00,,,0.00,Wunderground v.1.15,2013-05-14 06:34:00,
2013-05-14 02:36:00,44.9,41.3,30.24,N/A,-737280,0.0,-999.0,87,0.00,,,0.00,Wunderground v.1.15,2013-05-14 06:36:00,
2013-05-14 02:40:00,44.7,41.1,30.24,ENE,68,0.0,0.0,87,0.00,,,0.00,Wunderground v.1.15,2013-05-14 06:40:00,
2013-05-14 02:41:00,44.9,41.3,30.24,N/A,-737280,0.0,-999.0,87,0.00,,,0.00,Wunderground v.1.15,2013-05-14 06:41:00,
2013-05-14 02:46:00,44.6,41.3,30.24,ENE,68,0.0,0.0,88,0.00,,,0.00,Wunderground v.1.15,2013-05-14 06:46:00,
2013-05-14 02:51:00,44.1,40.8,30.25,N/A,-737280,0.0,-999.0,88,0.00,,,0.00,Wunderground v.1.15,2013-05-14 06:51:00,
2013-05-14 02:52:00,44.4,40.8,30.25,ENE,68,0.0,0.0,87,0.00,,,0.00,Wunderground v.1.15,2013-05-14 06:52:00,
2013-05-14 02:56:00,44.1,40.8,30.25,N/A,-737280,0.0,-999.0,88,0.00,,,0.00,Wunderground v.1.15,2013-05-14 06:56:00,
2013-05-14 02:58:00,44.2,40.9,30.25,ENE,68,0.0,0.0,88,0.00,,,0.00,Wunderground v.1.15,2013-05-14 06:58:00,
2013-05-14 03:01:00,44.1,40.8,30.25,N/A,-737280,0.0,-999.0,88,0.00,,,0.00,Wunderground v.1.15,2013-05-14 07:01:00,
2013-05-14 03:04:00,44.0,41.0,30.25,ENE,68,0.0,0.0,89,0.00,,,0.00,Wunderground v.1.15,2013-05-14 07:04:00,
2013-05-14 03:06:00,44.1,40.8,30.25,N/A,-737280,0.0,-999.0,88,0.00,,,0.00,Wunderground v.1.15,2013-05-14 07:06:00,
2013-05-14 03:10:00,43.9,40.9,30.25,ENE,68,0.0,0.0,89,0.00,,,0.00,Wunderground v.1.15,2013-05-14 07:10:00,
2013-05-14 03:11:00,44.1,40.8,30.25,N/A,-737280,0.0,-999.0,88,0.00,,,0.00,Wunderground v.1.15,2013-05-14 07:11:00,
2013-05-14 03:16:00,43.7,40.7,30.25,ENE,68,0.0,0.0,89,0.00,,,0.00,Wunderground v.1.15,2013-05-14 07:16:00,
2013-05-14 03:21:00,43.4,40.9,30.26,ENE,68,0.0,-999.0,91,0.00,,,0.00,Wunderground v.1.15,2013-05-14 07:21:00,
2013-05-14 03:22:00,43.5,40.8,30.25,ENE,68,0.0,0.0,90,0.00,,,0.00,Wunderground v.1.15,2013-05-14 07:22:00,
2013-05-14 03:26:00,43.4,40.9,30.26,ENE,68,0.0,-999.0,91,0.00,,,0.00,Wunderground v.1.15,2013-05-14 07:26:00,
2013-05-14 03:28:00,43.5,41.0,30.26,ENE,68,0.0,0.0,91,0.00,,,0.00,Wunderground v.1.15,2013-05-14 07:28:00,
2013-05-14 03:31:00,43.4,40.9,30.26,ENE,68,0.0,-999.0,91,0.00,,,0.00,Wunderground v.1.15,2013-05-14 07:31:00,
2013-05-14 03:34:00,43.4,40.9,30.26,ENE,68,0.0,0.0,91,0.00,,,0.00,Wunderground v.1.15,2013-05-14 07:34:00,
2013-05-14 03:36:00,43.4,40.9,30.26,ENE,68,0.0,-999.0,91,0.00,,,0.00,Wunderground v.1.15,2013-05-14 07:36:00,
2013-05-14 03:40:00,43.2,40.5,30.26,ENE,68,0.0,0.0,90,0.00,,,0.00,Wunderground v.1.15,2013-05-14 07:40:00,
2013-05-14 03:41:00,43.4,40.9,30.26,ENE,68,0.0,-999.0,91,0.00,,,0.00,Wunderground v.1.15,2013-05-14 07:41:00,
2013-05-14 03:46:00,43.1,40.7,30.26,ENE,68,0.0,0.0,91,0.00,,,0.00,Wunderground v.1.15,2013-05-14 07:46:00,
2013-05-14 03:51:00,42.7,40.3,30.27,N/A,-737280,0.0,-999.0,91,0.00,,,0.00,Wunderground v.1.15,2013-05-14 07:51:00,
2013-05-14 03:52:00,43.0,40.6,30.27,ENE,68,0.0,0.0,91,0.00,,,0.00,Wunderground v.1.15,2013-05-14 07:52:00,
2013-05-14 03:56:00,42.7,40.3,30.27,N/A,-737280,0.0,-999.0,91,0.00,,,0.00,Wunderground v.1.15,2013-05-14 07:56:00,
2013-05-14 03:58:00,42.9,40.5,30.26,ENE,68,0.0,0.0,91,0.00,,,0.00,Wunderground v.1.15,2013-05-14 07:58:00,
2013-05-14 04:01:00,42.7,40.3,30.27,N/A,-737280,0.0,-999.0,91,0.00,,,0.00,Wunderground v.1.15,2013-05-14 08:01:00,
2013-05-14 04:04:00,42.7,40.3,30.27,ENE,68,0.0,0.0,91,0.00,,,0.00,Wunderground v.1.15,2013-05-14 08:04:00,
2013-05-14 04:06:00,42.7,40.3,30.27,N/A,-737280,0.0,-999.0,91,0.00,,,0.00,Wunderground v.1.15,2013-05-14 08:06:00,
2013-05-14 04:10:00,42.5,40.1,30.27,ENE,68,0.0,0.0,91,0.00,,,0.00,Wunderground v.1.15,2013-05-14 08:10:00,
2013-05-14 04:11:00,42.7,40.3,30.27,N/A,-737280,0.0,-999.0,91,0.00,,,0.00,Wunderground v.1.15,2013-05-14 08:11:00,
2013-05-14 04:16:00,42.4,40.2,30.27,ENE,68,0.0,0.0,92,0.00,,,0.00,Wunderground v.1.15,2013-05-14 08:16:00,
2013-05-14 04:21:00,42.1,39.9,30.27,N/A,-737280,0.0,-999.0,92,0.00,,,0.00,Wunderground v.1.15,2013-05-14 08:21:00,
2013-05-14 04:22:00,42.3,40.1,30.27,ENE,68,0.0,0.0,92,0.00,,,0.00,Wunderground v.1.15,2013-05-14 08:22:00,
2013-05-14 04:26:00,42.1,39.9,30.27,N/A,-737280,0.0,-999.0,92,0.00,,,0.00,Wunderground v.1.15,2013-05-14 08:26:00,
2013-05-14 04:28:00,42.2,40.0,30.27,ENE,68,0.0,0.0,92,0.00,,,0.00,Wunderground v.1.15,2013-05-14 08:28:00,
2013-05-14 04:31:00,42.1,39.9,30.27,N/A,-737280,0.0,-999.0,92,0.00,,,0.00,Wunderground v.1.15,2013-05-14 08:31:00,
2013-05-14 04:34:00,42.1,39.9,30.27,ENE,68,0.0,0.0,92,0.00,,,0.00,Wunderground v.1.15,2013-05-14 08:34:00,
2013-05-14 04:36:00,42.1,39.9,30.27,N/A,-737280,0.0,-999.0,92,0.00,,,0.00,Wunderground v.1.15,2013-05-14 08:36:00,
2013-05-14 04:40:00,42.0,39.8,30.27,ENE,68,0.0,0.0,92,0.00,,,0.00,Wunderground v.1.15,2013-05-14 08:40:00,
2013-05-14 04:41:00,42.1,39.9,30.27,N/A,-737280,0.0,-999.0,92,0.00,,,0.00,Wunderground v.1.15,2013-05-14 08:41:00,
2013-05-14 04:46:00,42.1,39.9,30.27,ENE,68,0.0,0.0,92,0.00,,,0.00,Wunderground v.1.15,2013-05-14 08:46:00,
2013-05-14 04:51:00,41.9,39.5,30.27,N/A,-737280,0.0,-999.0,91,0.00,,,0.00,Wunderground v.1.15,2013-05-14 08:51:00,
2013-05-14 04:52:00,42.1,39.7,30.27,ENE,68,0.0,0.0,91,0.00,,,0.00,Wunderground v.1.15,2013-05-14 08:52:00,
2013-05-14 04:56:00,41.9,39.5,30.27,N/A,-737280,0.0,-999.0,91,0.00,,,0.00,Wunderground v.1.15,2013-05-14 08:56:00,
2013-05-14 04:58:00,42.0,39.6,30.27,ENE,68,0.0,0.0,91,0.00,,,0.00,Wunderground v.1.15,2013-05-14 08:58:00,
2013-05-14 05:01:00,41.9,39.5,30.27,N/A,-737280,0.0,-999.0,91,0.00,,,0.00,Wunderground v.1.15,2013-05-14 09:01:00,
2013-05-14 05:04:00,41.9,39.5,30.27,ENE,68,0.0,0.0,91,0.00,,,0.00,Wunderground v.1.15,2013-05-14 09:04:00,
2013-05-14 05:06:00,41.9,39.5,30.27,N/A,-737280,0.0,-999.0,91,0.00,,,0.00,Wunderground v.1.15,2013-05-14 09:06:00,
2013-05-14 05:10:00,41.7,39.3,30.27,ENE,68,0.0,0.0,91,0.00,,,0.00,Wunderground v.1.15,2013-05-14 09:10:00,
2013-05-14 05:11:00,41.9,39.5,30.27,N/A,-737280,0.0,-999.0,91,0.00,,,0.00,Wunderground v.1.15,2013-05-14 09:11:00,
2013-05-14 05:16:00,41.6,39.2,30.27,ENE,68,0.0,0.0,91,0.00,,,0.00,Wunderground v.1.15,2013-05-14 09:16:00,
2013-05-14 05:21:00,41.3,38.9,30.27,N/A,-737280,0.0,-999.0,91,0.00,,,0.00,Wunderground v.1.15,2013-05-14 09:21:00,
2013-05-14 05:22:00,41.5,39.1,30.27,ENE,68,0.0,0.0,91,0.00,,,0.00,Wunderground v.1.15,2013-05-14 09:22:00,
2013-05-14 05:26:00,41.3,38.9,30.27,N/A,-737280,0.0,-999.0,91,0.00,,,0.00,Wunderground v.1.15,2013-05-14 09:26:00,
2013-05-14 05:28:00,41.4,39.0,30.27,ENE,68,0.0,0.0,91,0.00,,,0.00,Wunderground v.1.15,2013-05-14 09:28:00,
2013-05-14 05:31:00,41.3,38.9,30.27,N/A,-737280,0.0,-999.0,91,0.00,,,0.00,Wunderground v.1.15,2013-05-14 09:31:00,
2013-05-14 05:34:00,41.2,38.8,30.27,ENE,68,0.0,0.0,91,0.00,,,0.00,Wunderground v.1.15,2013-05-14 09:34:00,
2013-05-14 05:36:00,41.3,38.9,30.27,N/A,-737280,0.0,-999.0,91,0.00,,,0.00,Wunderground v.1.15,2013-05-14 09:36:00,
2013-05-14 05:40:00,41.2,39.1,30.27,ENE,68,0.0,0.0,92,0.00,,,0.00,Wunderground v.1.15,2013-05-14 09:40:00,
2013-05-14 05:41:00,41.3,38.9,30.27,N/A,-737280,0.0,-999.0,91,0.00,,,0.00,Wunderground v.1.15,2013-05-14 09:41:00,
2013-05-14 05:46:00,41.2,38.8,30.27,ENE,68,0.0,0.0,91,0.00,,,0.00,Wunderground v.1.15,2013-05-14 09:46:00,
2013-05-14 05:51:00,41.0,38.6,30.28,N/A,-737280,0.0,-999.0,91,0.00,,,0.00,Wunderground v.1.15,2013-05-14 09:51:00,
2013-05-14 05:52:00,41.1,38.7,30.28,ENE,68,0.0,0.0,91,0.00,,,0.00,Wunderground v.1.15,2013-05-14 09:52:00,
2013-05-14 05:56:00,41.0,38.6,30.28,N/A,-737280,0.0,-999.0,91,0.00,,,0.00,Wunderground v.1.15,2013-05-14 09:56:00,
2013-05-14 05:58:00,41.0,38.6,30.28,ENE,68,0.0,0.0,91,0.00,,,0.00,Wunderground v.1.15,2013-05-14 09:58:00,
2013-05-14 06:01:00,41.0,38.6,30.28,N/A,-737280,0.0,-999.0,91,0.00,,,0.00,Wunderground v.1.15,2013-05-14 10:01:00,
2013-05-14 06:04:00,40.9,38.5,30.28,ENE,68,0.0,0.0,91,0.00,,,0.00,Wunderground v.1.15,2013-05-14 10:04:00,
2013-05-14 06:06:00,41.0,38.6,30.28,N/A,-737280,0.0,-999.0,91,0.00,,,0.00,Wunderground v.1.15,2013-05-14 10:06:00,
2013-05-14 06:10:00,40.9,38.5,30.28,ENE,68,0.0,0.0,91,0.00,,,0.00,Wunderground v.1.15,2013-05-14 10:10:00,
2013-05-14 06:11:00,41.0,38.6,30.28,N/A,-737280,0.0,-999.0,91,0.00,,,0.00,Wunderground v.1.15,2013-05-14 10:11:00,
2013-05-14 06:16:00,40.8,38.7,30.29,ENE,68,0.0,0.0,92,0.00,,,0.00,Wunderground v.1.15,2013-05-14 10:16:00,
2013-05-14 06:21:00,40.5,38.4,30.29,N/A,-737280,0.0,-999.0,92,0.00,,,0.00,Wunderground v.1.15,2013-05-14 10:21:00,
2013-05-14 06:22:00,40.7,38.6,30.29,ENE,68,0.0,0.0,92,0.00,,,0.00,Wunderground v.1.15,2013-05-14 10:22:00,
2013-05-14 06:26:00,40.5,38.4,30.29,N/A,-737280,0.0,-999.0,92,0.00,,,0.00,Wunderground v.1.15,2013-05-14 10:26:00,
2013-05-14 06:28:00,40.6,38.5,30.29,ENE,68,0.0,0.0,92,0.00,,,0.00,Wunderground v.1.15,2013-05-14 10:28:00,
2013-05-14 06:31:00,40.5,38.4,30.29,N/A,-737280,0.0,-999.0,92,0.00,,,0.00,Wunderground v.1.15,2013-05-14 10:31:00,
2013-05-14 06:34:00,40.4,38.3,30.30,ENE,68,0.0,0.0,92,0.00,,,0.00,Wunderground v.1.15,2013-05-14 10:34:00,
2013-05-14 06:36:00,40.5,38.4,30.29,N/A,-737280,0.0,-999.0,92,0.00,,,0.00,Wunderground v.1.15,2013-05-14 10:36:00,
2013-05-14 06:40:00,40.3,38.2,30.30,ENE,68,0.0,0.0,92,0.00,,,0.00,Wunderground v.1.15,2013-05-14 10:40:00,
2013-05-14 06:41:00,40.5,38.4,30.29,N/A,-737280,0.0,-999.0,92,0.00,,,0.00,Wunderground v.1.15,2013-05-14 10:41:00,
2013-05-14 06:46:00,40.3,38.4,30.30,ENE,68,0.0,0.0,93,0.00,,,0.00,Wunderground v.1.15,2013-05-14 10:46:00,
2013-05-14 06:51:00,40.4,38.5,30.30,N/A,-737280,0.0,-999.0,93,0.00,,,0.00,Wunderground v.1.15,2013-05-14 10:51:00,
2013-05-14 06:52:00,40.4,38.5,30.30,ENE,68,0.0,0.0,93,0.00,,,0.00,Wunderground v.1.15,2013-05-14 10:52:00,
2013-05-14 06:56:00,40.4,38.5,30.30,N/A,-737280,0.0,-999.0,93,0.00,,,0.00,Wunderground v.1.15,2013-05-14 10:56:00,
2013-05-14 06:58:00,40.4,38.5,30.30,ENE,68,0.0,0.0,93,0.00,,,0.00,Wunderground v.1.15,2013-05-14 10:58:00,
2013-05-14 07:01:00,40.4,38.5,30.30,N/A,-737280,0.0,-999.0,93,0.00,,,0.00,Wunderground v.1.15,2013-05-14 11:01:00,
2013-05-14 07:04:00,40.5,38.6,30.30,ENE,68,0.0,0.0,93,0.00,,,0.00,Wunderground v.1.15,2013-05-14 11:04:00,
2013-05-14 07:06:00,40.4,38.5,30.30,N/A,-737280,0.0,-999.0,93,0.00,,,0.00,Wunderground v.1.15,2013-05-14 11:06:00,
2013-05-14 07:10:00,40.6,39.0,30.30,ENE,68,0.0,0.0,94,0.00,,,0.00,Wunderground v.1.15,2013-05-14 11:10:00,
2013-05-14 07:11:00,40.4,38.5,30.30,N/A,-737280,0.0,-999.0,93,0.00,,,0.00,Wunderground v.1.15,2013-05-14 11:11:00,
2013-05-14 07:16:00,40.8,39.2,30.31,ENE,68,0.0,0.0,94,0.00,,,0.00,Wunderground v.1.15,2013-05-14 11:16:00,
2013-05-14 07:21:00,41.9,40.6,30.31,N/A,-737280,0.0,-999.0,95,0.00,,,0.00,Wunderground v.1.15,2013-05-14 11:21:00,
2013-05-14 07:22:00,41.0,39.4,30.31,ENE,68,0.0,0.0,94,0.00,,,0.00,Wunderground v.1.15,2013-05-14 11:22:00,
2013-05-14 07:26:00,41.9,40.6,30.31,N/A,-737280,0.0,-999.0,95,0.00,,,0.00,Wunderground v.1.15,2013-05-14 11:26:00,
2013-05-14 07:28:00,41.6,40.3,30.31,ENE,68,0.0,0.0,95,0.00,,,0.00,Wunderground v.1.15,2013-05-14 11:28:00,
2013-05-14 07:31:00,41.9,40.6,30.31,N/A,-737280,0.0,-999.0,95,0.00,,,0.00,Wunderground v.1.15,2013-05-14 11:31:00,
2013-05-14 07:34:00,42.2,40.9,30.31,ENE,68,0.0,0.0,95,0.00,,,0.00,Wunderground v.1.15,2013-05-14 11:34:00,
2013-05-14 07:36:00,41.9,40.6,30.31,N/A,-737280,0.0,-999.0,95,0.00,,,0.00,Wunderground v.1.15,2013-05-14 11:36:00,
2013-05-14 07:40:00,42.7,41.4,30.31,ENE,68,0.0,0.0,95,0.00,,,0.00,Wunderground v.1.15,2013-05-14 11:40:00,
2013-05-14 07:41:00,41.9,40.6,30.31,N/A,-737280,0.0,-999.0,95,0.00,,,0.00,Wunderground v.1.15,2013-05-14 11:41:00,
2013-05-14 07:46:00,43.3,41.7,30.31,ENE,68,0.0,0.0,94,0.00,,,0.00,Wunderground v.1.15,2013-05-14 11:46:00,
2013-05-14 07:51:00,45.0,42.5,30.31,N/A,-737280,0.0,-999.0,91,0.00,,,0.00,Wunderground v.1.15,2013-05-14 11:51:00,
2013-05-14 07:52:00,44.1,41.9,30.31,ENE,67,0.0,0.0,92,0.00,,,0.00,Wunderground v.1.15,2013-05-14 11:52:00,
2013-05-14 07:56:00,45.0,42.5,30.31,N/A,-737280,0.0,-999.0,91,0.00,,,0.00,Wunderground v.1.15,2013-05-14 11:56:00,
2013-05-14 07:58:00,44.7,42.2,30.31,ENE,67,0.0,0.0,91,0.00,,,0.00,Wunderground v.1.15,2013-05-14 11:58:00,
2013-05-14 08:01:00,45.0,42.5,30.31,N/A,-737280,0.0,-999.0,91,0.00,,,0.00,Wunderground v.1.15,2013-05-14 12:01:00,
2013-05-14 08:04:00,45.4,42.9,30.31,ENE,67,0.0,0.0,91,0.00,,,0.00,Wunderground v.1.15,2013-05-14 12:04:00,
2013-05-14 08:06:00,45.0,42.5,30.31,N/A,-737280,0.0,-999.0,91,0.00,,,0.00,Wunderground v.1.15,2013-05-14 12:06:00,
2013-05-14 08:10:00,46.0,42.9,30.31,ENE,67,0.0,0.0,89,0.00,,,0.00,Wunderground v.1.15,2013-05-14 12:10:00,
2013-05-14 08:11:00,45.0,42.5,30.31,N/A,-737280,0.0,-999.0,91,0.00,,,0.00,Wunderground v.1.15,2013-05-14 12:11:00,
2013-05-14 08:16:00,47.6,42.7,30.31,West,268,0.0,1.0,83,0.00,,,0.00,Wunderground v.1.15,2013-05-14 12:16:00,
2013-05-14 08:21:00,51.7,41.5,30.32,West,270,0.0,-999.0,68,0.00,,,0.00,Wunderground v.1.15,2013-05-14 12:21:00,
2013-05-14 08:22:00,49.6,41.7,30.32,West,266,0.0,0.0,74,0.00,,,0.00,Wunderground v.1.15,2013-05-14 12:22:00,
2013-05-14 08:26:00,51.7,41.5,30.32,West,270,0.0,-999.0,68,0.00,,,0.00,Wunderground v.1.15,2013-05-14 12:26:00,
2013-05-14 08:28:00,51.0,41.9,30.32,WSW,237,0.0,1.0,71,0.00,,,0.00,Wunderground v.1.15,2013-05-14 12:28:00,
2013-05-14 08:31:00,51.7,41.5,30.32,West,270,0.0,-999.0,68,0.00,,,0.00,Wunderground v.1.15,2013-05-14 12:31:00,
2013-05-14 08:34:00,52.2,42.0,30.31,WSW,245,0.0,1.0,68,0.00,,,0.00,Wunderground v.1.15,2013-05-14 12:34:00,
2013-05-14 08:36:00,51.7,41.5,30.32,West,270,0.0,-999.0,68,0.00,,,0.00,Wunderground v.1.15,2013-05-14 12:36:00,
2013-05-14 08:40:00,53.3,41.4,30.32,NW,318,0.0,0.0,64,0.00,,,0.00,Wunderground v.1.15,2013-05-14 12:40:00,
2013-05-14 08:41:00,51.7,41.5,30.32,West,270,0.0,-999.0,68,0.00,,,0.00,Wunderground v.1.15,2013-05-14 12:41:00,
2013-05-14 08:46:00,54.4,42.1,30.32,South,188,1.0,2.0,63,0.00,,,0.00,Wunderground v.1.15,2013-05-14 12:46:00,
2013-05-14 08:51:00,55.7,41.1,30.32,WSW,248,1.0,-999.0,58,0.00,,,0.00,Wunderground v.1.15,2013-05-14 12:51:00,
2013-05-14 08:52:00,55.0,40.9,30.32,West,261,1.0,5.0,59,0.00,,,0.00,Wunderground v.1.15,2013-05-14 12:52:00,
2013-05-14 08:56:00,55.7,41.1,30.32,WSW,248,1.0,-999.0,58,0.00,,,0.00,Wunderground v.1.15,2013-05-14 12:56:00,
2013-05-14 08:58:00,55.5,40.0,30.32,SW,235,1.0,5.0,56,0.00,,,0.00,Wunderground v.1.15,2013-05-14 12:58:00,
2013-05-14 09:01:00,55.7,41.1,30.32,WSW,248,1.0,-999.0,58,0.00,,,0.00,Wunderground v.1.15,2013-05-14 13:01:00,
2013-05-14 09:04:00,56.0,41.0,30.31,WSW,251,2.0,3.0,57,0.00,,,0.00,Wunderground v.1.15,2013-05-14 13:04:00,
2013-05-14 09:06:00,55.7,41.1,30.32,WSW,248,1.0,-999.0,58,0.00,,,0.00,Wunderground v.1.15,2013-05-14 13:06:00,
2013-05-14 09:10:00,56.6,41.1,30.31,West,274,2.0,2.0,56,0.00,,,0.00,Wunderground v.1.15,2013-05-14 13:10:00,
2013-05-14 09:11:00,55.7,41.1,30.32,WSW,248,1.0,-999.0,58,0.00,,,0.00,Wunderground v.1.15,2013-05-14 13:11:00,
2013-05-14 09:16:00,57.2,41.6,30.31,SW,217,2.0,4.0,56,0.00,,,0.00,Wunderground v.1.15,2013-05-14 13:16:00,
2013-05-14 09:21:00,58.5,39.4,30.31,West,270,2.0,-999.0,49,0.00,,,0.00,Wunderground v.1.15,2013-05-14 13:21:00,
2013-05-14 09:22:00,57.8,41.7,30.31,West,271,2.0,2.0,55,0.00,,,0.00,Wunderground v.1.15,2013-05-14 13:22:00,
2013-05-14 09:26:00,58.5,39.4,30.31,West,270,2.0,-999.0,49,0.00,,,0.00,Wunderground v.1.15,2013-05-14 13:26:00,
2013-05-14 09:28:00,58.4,40.3,30.31,WSW,247,2.0,2.0,51,0.00,,,0.00,Wunderground v.1.15,2013-05-14 13:28:00,
2013-05-14 09:31:00,58.5,39.4,30.31,West,270,2.0,-999.0,49,0.00,,,0.00,Wunderground v.1.15,2013-05-14 13:31:00,
2013-05-14 09:34:00,58.7,41.1,30.31,West,274,2.0,4.0,52,0.00,,,0.00,Wunderground v.1.15,2013-05-14 13:34:00,
2013-05-14 09:36:00,58.5,39.4,30.31,West,270,2.0,-999.0,49,0.00,,,0.00,Wunderground v.1.15,2013-05-14 13:36:00,
2013-05-14 09:40:00,59.2,42.1,30.32,SSE,153,2.0,2.0,53,0.00,,,0.00,Wunderground v.1.15,2013-05-14 13:40:00,
2013-05-14 09:41:00,58.5,39.4,30.31,West,270,2.0,-999.0,49,0.00,,,0.00,Wunderground v.1.15,2013-05-14 13:41:00,
2013-05-14 09:46:00,59.8,41.6,30.31,WSW,256,2.0,3.0,51,0.00,,,0.00,Wunderground v.1.15,2013-05-14 13:46:00,
2013-05-14 09:51:00,61.4,43.1,30.31,West,270,2.0,-999.0,51,0.00,,,0.00,Wunderground v.1.15,2013-05-14 13:51:00,
2013-05-14 09:52:00,60.6,41.8,30.31,WSW,256,2.0,2.0,50,0.00,,,0.00,Wunderground v.1.15,2013-05-14 13:52:00,
2013-05-14 09:56:00,61.4,43.1,30.31,West,270,2.0,-999.0,51,0.00,,,0.00,Wunderground v.1.15,2013-05-14 13:56:00,
2013-05-14 09:58:00,61.3,42.0,30.31,WNW,292,2.0,3.0,49,0.00,,,0.00,Wunderground v.1.15,2013-05-14 13:58:00,
2013-05-14 10:01:00,61.4,43.1,30.31,West,270,2.0,-999.0,51,0.00,,,0.00,Wunderground v.1.15,2013-05-14 14:01:00,
2013-05-14 10:04:00,61.7,41.3,30.31,WSW,256,2.0,2.0,47,0.00,,,0.00,Wunderground v.1.15,2013-05-14 14:04:00,
2013-05-14 10:06:00,61.4,43.1,30.31,West,270,2.0,-999.0,51,0.00,,,0.00,Wunderground v.1.15,2013-05-14 14:06:00,
2013-05-14 10:10:00,61.6,42.8,30.31,NW,309,1.0,2.0,50,0.00,,,0.00,Wunderground v.1.15,2013-05-14 14:10:00,
2013-05-14 10:11:00,61.4,43.1,30.31,West,270,2.0,-999.0,51,0.00,,,0.00,Wunderground v.1.15,2013-05-14 14:11:00,
2013-05-14 10:16:00,62.1,42.2,30.32,NW,306,1.0,2.0,48,0.00,,,0.00,Wunderground v.1.15,2013-05-14 14:16:00,
2013-05-14 10:21:00,63.1,41.4,30.32,WSW,248,2.0,-999.0,45,0.00,,,0.00,Wunderground v.1.15,2013-05-14 14:21:00,
2013-05-14 10:22:00,62.8,42.8,30.32,WNW,284,1.0,1.0,48,0.00,,,0.00,Wunderground v.1.15,2013-05-14 14:22:00,
2013-05-14 10:26:00,63.1,41.4,30.32,WSW,248,2.0,-999.0,45,0.00,,,0.00,Wunderground v.1.15,2013-05-14 14:26:00,
2013-05-14 10:28:00,62.9,41.2,30.32,NW,326,2.0,4.0,45,0.00,,,0.00,Wunderground v.1.15,2013-05-14 14:28:00,
2013-05-14 10:31:00,63.1,41.4,30.32,WSW,248,2.0,-999.0,45,0.00,,,0.00,Wunderground v.1.15,2013-05-14 14:31:00,
2013-05-14 10:34:00,63.4,41.7,30.32,NNE,14,2.0,2.0,45,0.00,,,0.00,Wunderground v.1.15,2013-05-14 14:34:00,
2013-05-14 10:36:00,63.1,41.4,30.32,WSW,248,2.0,-999.0,45,0.00,,,0.00,Wunderground v.1.15,2013-05-14 14:36:00,
2013-05-14 10:40:00,63.9,42.1,30.32,NNW,341,1.0,1.0,45,0.00,,,0.00,Wunderground v.1.15,2013-05-14 14:40:00,
2013-05-14 10:41:00,63.1,41.4,30.32,WSW,248,2.0,-999.0,45,0.00,,,0.00,Wunderground v.1.15,2013-05-14 14:41:00,
2013-05-14 10:46:00,64.3,39.4,30.32,West,280,1.0,2.0,40,0.00,,,0.00,Wunderground v.1.15,2013-05-14 14:46:00,
2013-05-14 10:51:00,65.2,43.9,30.32,West,270,1.0,-999.0,46,0.00,,,0.00,Wunderground v.1.15,2013-05-14 14:51:00,
2013-05-14 10:52:00,64.5,42.1,30.32,WNW,282,1.0,1.0,44,0.00,,,0.00,Wunderground v.1.15,2013-05-14 14:52:00,
2013-05-14 10:56:00,65.2,43.9,30.32,West,270,1.0,-999.0,46,0.00,,,0.00,Wunderground v.1.15,2013-05-14 14:56:00,
2013-05-14 10:58:00,64.8,42.9,30.32,WNW,283,1.0,3.0,45,0.00,,,0.00,Wunderground v.1.15,2013-05-14 14:58:00,
2013-05-14 11:01:00,65.2,43.9,30.32,West,270,1.0,-999.0,46,0.00,,,0.00,Wunderground v.1.15,2013-05-14 15:01:00,
2013-05-14 11:04:00,65.4,40.4,30.32,WNW,289,1.0,3.0,40,0.00,,,0.00,Wunderground v.1.15,2013-05-14 15:04:00,
2013-05-14 11:06:00,65.2,43.9,30.32,West,270,1.0,-999.0,46,0.00,,,0.00,Wunderground v.1.15,2013-05-14 15:06:00,
2013-05-14 11:10:00,65.4,44.1,30.33,NW,312,2.0,2.0,46,0.00,,,0.00,Wunderground v.1.15,2013-05-14 15:10:00,
2013-05-14 11:11:00,65.2,43.9,30.32,West,270,1.0,-999.0,46,0.00,,,0.00,Wunderground v.1.15,2013-05-14 15:11:00,
2013-05-14 11:16:00,65.7,39.4,30.32,WNW,289,1.0,2.0,38,0.00,,,0.00,Wunderground v.1.15,2013-05-14 15:16:00,
2013-05-14 11:21:00,66.1,45.8,30.32,WNW,293,1.0,-999.0,48,0.00,,,0.00,Wunderground v.1.15,2013-05-14 15:21:00,
2013-05-14 11:22:00,65.8,42.1,30.32,WNW,293,1.0,3.0,42,0.00,,,0.00,Wunderground v.1.15,2013-05-14 15:22:00,
2013-05-14 11:26:00,66.1,45.8,30.32,WNW,293,1.0,-999.0,48,0.00,,,0.00,Wunderground v.1.15,2013-05-14 15:26:00,
2013-05-14 11:28:00,66.2,42.4,30.32,WNW,285,1.0,5.0,42,0.00,,,0.00,Wunderground v.1.15,2013-05-14 15:28:00,
2013-05-14 11:31:00,66.1,45.8,30.32,WNW,293,1.0,-999.0,48,0.00,,,0.00,Wunderground v.1.15,2013-05-14 15:31:00,
2013-05-14 11:34:00,66.0,43.5,30.32,ENE,74,2.0,3.0,44,0.00,,,0.00,Wunderground v.1.15,2013-05-14 15:34:00,
2013-05-14 11:36:00,66.1,45.8,30.32,WNW,293,1.0,-999.0,48,0.00,,,0.00,Wunderground v.1.15,2013-05-14 15:36:00,
2013-05-14 11:40:00,66.4,45.5,30.32,NNE,15,2.0,2.0,47,0.00,,,0.00,Wunderground v.1.15,2013-05-14 15:40:00,
2013-05-14 11:41:00,66.1,45.8,30.32,WNW,293,1.0,-999.0,48,0.00,,,0.00,Wunderground v.1.15,2013-05-14 15:41:00,
2013-05-14 11:46:00,66.9,44.9,30.32,North,4,1.0,2.0,45,0.00,,,0.00,Wunderground v.1.15,2013-05-14 15:46:00,
2013-05-14 11:51:00,67.4,41.6,30.31,NNE,23,1.0,-999.0,39,0.00,,,0.00,Wunderground v.1.15,2013-05-14 15:51:00,
2013-05-14 11:52:00,67.3,41.5,30.31,NNE,20,1.0,1.0,39,0.00,,,0.00,Wunderground v.1.15,2013-05-14 15:52:00,
2013-05-14 11:56:00,67.4,41.6,30.31,NNE,23,1.0,-999.0,39,0.00,,,0.00,Wunderground v.1.15,2013-05-14 15:56:00,
2013-05-14 11:58:00,67.3,40.1,30.31,East,79,1.0,3.0,37,0.00,,,0.00,Wunderground v.1.15,2013-05-14 15:58:00,
2013-05-14 12:01:00,67.4,41.6,30.31,NNE,23,1.0,-999.0,39,0.00,,,0.00,Wunderground v.1.15,2013-05-14 16:01:00,
2013-05-14 12:04:00,67.6,43.1,30.31,ENE,64,1.0,1.0,41,0.00,,,0.00,Wunderground v.1.15,2013-05-14 16:04:00,
2013-05-14 12:06:00,67.4,41.6,30.31,NNE,23,1.0,-999.0,39,0.00,,,0.00,Wunderground v.1.15,2013-05-14 16:06:00,
2013-05-14 12:10:00,68.3,44.9,30.31,NW,324,1.0,1.0,43,0.00,,,0.00,Wunderground v.1.15,2013-05-14 16:10:00,
2013-05-14 12:11:00,67.4,41.6,30.31,NNE,23,1.0,-999.0,39,0.00,,,0.00,Wunderground v.1.15,2013-05-14 16:11:00,
2013-05-14 12:16:00,68.7,49.3,30.31,NE,56,1.0,1.0,50,0.00,,,0.00,Wunderground v.1.15,2013-05-14 16:16:00,
2013-05-14 12:21:00,68.8,47.2,30.31,ENE,68,1.0,-999.0,46,0.00,,,0.00,Wunderground v.1.15,2013-05-14 16:21:00,
2013-05-14 12:22:00,68.3,43.7,30.31,ENE,60,1.0,2.0,41,0.00,,,0.00,Wunderground v.1.15,2013-05-14 16:22:00,
2013-05-14 12:26:00,68.8,47.2,30.31,ENE,68,1.0,-999.0,46,0.00,,,0.00,Wunderground v.1.15,2013-05-14 16:26:00,
2013-05-14 12:28:00,68.5,47.5,30.31,East,100,1.0,2.0,47,0.00,,,0.00,Wunderground v.1.15,2013-05-14 16:28:00,
2013-05-14 12:31:00,68.8,47.2,30.31,ENE,68,1.0,-999.0,46,0.00,,,0.00,Wunderground v.1.15,2013-05-14 16:31:00,
2013-05-14 12:34:00,68.9,44.9,30.30,ENE,60,1.0,1.0,42,0.00,,,0.00,Wunderground v.1.15,2013-05-14 16:34:00,
2013-05-14 12:36:00,68.8,47.2,30.31,ENE,68,1.0,-999.0,46,0.00,,,0.00,Wunderground v.1.15,2013-05-14 16:36:00,
2013-05-14 12:40:00,68.9,43.6,30.30,NNW,341,2.0,2.0,40,0.00,,,0.00,Wunderground v.1.15,2013-05-14 16:40:00,
2013-05-14 12:41:00,68.8,47.2,30.31,ENE,68,1.0,-999.0,46,0.00,,,0.00,Wunderground v.1.15,2013-05-14 16:41:00,
2013-05-14 12:46:00,68.8,46.0,30.30,NE,54,2.0,2.0,44,0.00,,,0.00,Wunderground v.1.15,2013-05-14 16:46:00,
2013-05-14 12:51:00,69.5,42.8,30.29,NE,45,2.0,-999.0,38,0.00,,,0.00,Wunderground v.1.15,2013-05-14 16:51:00,
2013-05-14 12:52:00,68.9,45.5,30.30,NE,43,2.0,3.0,43,0.00,,,0.00,Wunderground v.1.15,2013-05-14 16:52:00,
2013-05-14 12:56:00,69.5,42.8,30.29,NE,45,2.0,-999.0,38,0.00,,,0.00,Wunderground v.1.15,2013-05-14 16:56:00,
2013-05-14 12:58:00,69.3,44.6,30.29,NNW,343,1.0,3.0,41,0.00,,,0.00,Wunderground v.1.15,2013-05-14 16:58:00,
2013-05-14 13:01:00,69.5,42.8,30.29,NE,45,2.0,-999.0,38,0.00,,,0.00,Wunderground v.1.15,2013-05-14 17:01:00,
2013-05-14 13:04:00,69.6,48.5,30.29,NNE,15,2.0,3.0,47,0.00,,,0.00,Wunderground v.1.15,2013-05-14 17:04:00,
2013-05-14 13:06:00,69.5,42.8,30.29,NE,45,2.0,-999.0,38,0.00,,,0.00,Wunderground v.1.15,2013-05-14 17:06:00,
2013-05-14 13:10:00,69.7,43.6,30.29,WNW,287,2.0,2.0,39,0.00,,,0.00,Wunderground v.1.15,2013-05-14 17:10:00,
2013-05-14 13:11:00,69.5,42.8,30.29,NE,45,2.0,-999.0,38,0.00,,,0.00,Wunderground v.1.15,2013-05-14 17:11:00,
2013-05-14 13:16:00,69.4,41.3,30.28,NNE,18,2.0,2.0,36,0.00,,,0.00,Wunderground v.1.15,2013-05-14 17:16:00,
2013-05-14 13:21:00,70.3,44.2,30.27,North,0,2.0,-999.0,39,0.00,,,0.00,Wunderground v.1.15,2013-05-14 17:21:00,
2013-05-14 13:22:00,69.9,46.4,30.28,NNE,31,1.0,2.0,43,0.00,,,0.00,Wunderground v.1.15,2013-05-14 17:22:00,
2013-05-14 13:26:00,70.3,44.2,30.27,North,0,2.0,-999.0,39,0.00,,,0.00,Wunderground v.1.15,2013-05-14 17:26:00,
2013-05-14 13:28:00,70.2,45.4,30.27,NNW,336,2.0,5.0,41,0.00,,,0.00,Wunderground v.1.15,2013-05-14 17:28:00,
2013-05-14 13:31:00,70.3,44.2,30.27,North,0,2.0,-999.0,39,0.00,,,0.00,Wunderground v.1.15,2013-05-14 17:31:00,
2013-05-14 13:34:00,70.4,46.8,30.27,NE,40,2.0,3.0,43,0.00,,,0.00,Wunderground v.1.15,2013-05-14 17:34:00,
2013-05-14 13:36:00,70.3,44.2,30.27,North,0,2.0,-999.0,39,0.00,,,0.00,Wunderground v.1.15,2013-05-14 17:36:00,
2013-05-14 13:40:00,70.7,45.8,30.27,NNW,338,1.0,3.0,41,0.00,,,0.00,Wunderground v.1.15,2013-05-14 17:40:00,
2013-05-14 13:41:00,70.3,44.2,30.27,North,0,2.0,-999.0,39,0.00,,,0.00,Wunderground v.1.15,2013-05-14 17:41:00,
2013-05-14 13:46:00,71.2,46.3,30.27,NNE,22,2.0,5.0,41,0.00,,,0.00,Wunderground v.1.15,2013-05-14 17:46:00,
2013-05-14 13:51:00,71.1,43.5,30.26,NE,45,2.0,-999.0,37,0.00,,,0.00,Wunderground v.1.15,2013-05-14 17:51:00,
2013-05-14 13:52:00,71.1,46.8,30.26,North,360,1.0,3.0,42,0.00,,,0.00,Wunderground v.1.15,2013-05-14 17:52:00,
2013-05-14 13:56:00,71.1,43.5,30.26,NE,45,2.0,-999.0,37,0.00,,,0.00,Wunderground v.1.15,2013-05-14 17:56:00,
2013-05-14 13:58:00,71.2,43.6,30.26,North,351,2.0,5.0,37,0.00,,,0.00,Wunderground v.1.15,2013-05-14 17:58:00,
2013-05-14 14:01:00,71.1,43.5,30.26,NE,45,2.0,-999.0,37,0.00,,,0.00,Wunderground v.1.15,2013-05-14 18:01:00,
2013-05-14 14:04:00,70.8,43.2,30.26,NNW,339,3.0,3.0,37,0.00,,,0.00,Wunderground v.1.15,2013-05-14 18:04:00,
2013-05-14 14:06:00,71.1,43.5,30.26,NE,45,2.0,-999.0,37,0.00,,,0.00,Wunderground v.1.15,2013-05-14 18:06:00,
2013-05-14 14:10:00,71.0,43.4,30.25,NE,41,2.0,3.0,37,0.00,,,0.00,Wunderground v.1.15,2013-05-14 18:10:00,
2013-05-14 14:11:00,71.1,43.5,30.26,NE,45,2.0,-999.0,37,0.00,,,0.00,Wunderground v.1.15,2013-05-14 18:11:00,
2013-05-14 14:16:00,71.4,47.1,30.25,NE,44,2.0,3.0,42,0.00,,,0.00,Wunderground v.1.15,2013-05-14 18:16:00,
2013-05-14 14:21:00,72.0,45.7,30.25,NE,45,2.0,-999.0,39,0.00,,,0.00,Wunderground v.1.15,2013-05-14 18:21:00,
2013-05-14 14:22:00,72.0,46.3,30.25,NE,46,2.0,2.0,40,0.00,,,0.00,Wunderground v.1.15,2013-05-14 18:22:00,
2013-05-14 14:26:00,72.0,45.7,30.25,NE,45,2.0,-999.0,39,0.00,,,0.00,Wunderground v.1.15,2013-05-14 18:26:00,
2013-05-14 14:28:00,72.0,45.7,30.25,North,354,2.0,3.0,39,0.00,,,0.00,Wunderground v.1.15,2013-05-14 18:28:00,
2013-05-14 14:31:00,72.0,45.7,30.25,NE,45,2.0,-999.0,39,0.00,,,0.00,Wunderground v.1.15,2013-05-14 18:31:00,
2013-05-14 14:34:00,72.2,49.1,30.25,NE,35,1.0,2.0,44,0.00,,,0.00,Wunderground v.1.15,2013-05-14 18:34:00,
2013-05-14 14:36:00,72.0,45.7,30.25,NE,45,2.0,-999.0,39,0.00,,,0.00,Wunderground v.1.15,2013-05-14 18:36:00,
2013-05-14 14:40:00,72.5,44.0,30.25,North,358,1.0,2.0,36,0.00,,,0.00,Wunderground v.1.15,2013-05-14 18:40:00,
2013-05-14 14:41:00,72.0,45.7,30.25,NE,45,2.0,-999.0,39,0.00,,,0.00,Wunderground v.1.15,2013-05-14 18:41:00,
2013-05-14 14:46:00,72.4,48.0,30.24,NE,55,2.0,3.0,42,0.00,,,0.00,Wunderground v.1.15,2013-05-14 18:46:00,
2013-05-14 14:51:00,72.2,47.2,30.24,NNE,23,2.0,-999.0,41,0.00,,,0.00,Wunderground v.1.15,2013-05-14 18:51:00,
2013-05-14 14:52:00,72.4,44.6,30.24,WNW,297,2.0,7.0,37,0.00,,,0.00,Wunderground v.1.15,2013-05-14 18:52:00,
2013-05-14 14:56:00,72.2,47.2,30.24,NNE,23,2.0,-999.0,41,0.00,,,0.00,Wunderground v.1.15,2013-05-14 18:56:00,
2013-05-14 14:58:00,72.3,45.3,30.24,ENE,64,3.0,7.0,38,0.00,,,0.00,Wunderground v.1.15,2013-05-14 18:58:00,
2013-05-14 15:01:00,72.2,47.2,30.24,NNE,23,2.0,-999.0,41,0.00,,,0.00,Wunderground v.1.15,2013-05-14 19:01:00,
2013-05-14 15:04:00,72.3,45.3,30.24,North,350,2.0,4.0,38,0.00,,,0.00,Wunderground v.1.15,2013-05-14 19:04:00,
2013-05-14 15:06:00,72.2,47.2,30.24,NNE,23,2.0,-999.0,41,0.00,,,0.00,Wunderground v.1.15,2013-05-14 19:06:00,
2013-05-14 15:10:00,72.6,44.1,30.23,NW,326,1.0,1.0,36,0.00,,,0.00,Wunderground v.1.15,2013-05-14 19:10:00,
2013-05-14 15:11:00,72.2,47.2,30.24,NNE,23,2.0,-999.0,41,0.00,,,0.00,Wunderground v.1.15,2013-05-14 19:11:00,
2013-05-14 15:16:00,72.7,45.6,30.23,NE,40,1.0,3.0,38,0.00,,,0.00,Wunderground v.1.15,2013-05-14 19:16:00,
2013-05-14 15:21:00,72.7,46.3,30.22,NNE,23,2.0,-999.0,39,0.00,,,0.00,Wunderground v.1.15,2013-05-14 19:21:00,
2013-05-14 15:22:00,72.8,45.7,30.23,NE,52,2.0,2.0,38,0.00,,,0.00,Wunderground v.1.15,2013-05-14 19:22:00,
2013-05-14 15:26:00,72.7,46.3,30.22,NNE,23,2.0,-999.0,39,0.00,,,0.00,Wunderground v.1.15,2013-05-14 19:26:00,
2013-05-14 15:28:00,72.6,43.4,30.23,North,352,2.0,2.0,35,0.00,,,0.00,Wunderground v.1.15,2013-05-14 19:28:00,
2013-05-14 15:31:00,72.7,46.3,30.22,NNE,23,2.0,-999.0,39,0.00,,,0.00,Wunderground v.1.15,2013-05-14 19:31:00,
2013-05-14 15:34:00,72.9,47.2,30.22,NW,312,2.0,2.0,40,0.00,,,0.00,Wunderground v.1.15,2013-05-14 19:34:00,
2013-05-14 15:36:00,72.7,46.3,30.22,NNE,23,2.0,-999.0,39,0.00,,,0.00,Wunderground v.1.15,2013-05-14 19:36:00,
2013-05-14 15:40:00,73.1,44.5,30.21,NE,44,2.0,3.0,36,0.00,,,0.00,Wunderground v.1.15,2013-05-14 19:40:00,
2013-05-14 15:41:00,72.7,46.3,30.22,NNE,23,2.0,-999.0,39,0.00,,,0.00,Wunderground v.1.15,2013-05-14 19:41:00,
2013-05-14 15:46:00,73.0,44.5,30.22,North,6,3.0,6.0,36,0.00,,,0.00,Wunderground v.1.15,2013-05-14 19:46:00,
2013-05-14 15:51:00,73.5,44.9,30.20,NE,45,2.0,-999.0,36,0.00,,,0.00,Wunderground v.1.15,2013-05-14 19:51:00,
2013-05-14 15:52:00,73.1,44.5,30.21,West,264,3.0,3.0,36,0.00,,,0.00,Wunderground v.1.15,2013-05-14 19:52:00,
2013-05-14 15:56:00,73.5,44.9,30.20,NE,45,2.0,-999.0,36,0.00,,,0.00,Wunderground v.1.15,2013-05-14 19:56:00,
2013-05-14 15:58:00,73.4,46.2,30.21,NNE,23,1.0,3.0,38,0.00,,,0.00,Wunderground v.1.15,2013-05-14 19:58:00,
2013-05-14 16:01:00,73.5,44.9,30.20,NE,45,2.0,-999.0,36,0.00,,,0.00,Wunderground v.1.15,2013-05-14 20:01:00,
2013-05-14 16:04:00,73.5,45.6,30.20,North,8,2.0,2.0,37,0.00,,,0.00,Wunderground v.1.15,2013-05-14 20:04:00,
2013-05-14 16:06:00,73.5,44.9,30.20,NE,45,2.0,-999.0,36,0.00,,,0.00,Wunderground v.1.15,2013-05-14 20:06:00,
2013-05-14 16:10:00,73.3,44.0,30.20,NNW,339,2.0,3.0,35,0.00,,,0.00,Wunderground v.1.15,2013-05-14 20:10:00,
2013-05-14 16:11:00,73.5,44.9,30.20,NE,45,2.0,-999.0,36,0.00,,,0.00,Wunderground v.1.15,2013-05-14 20:11:00,
2013-05-14 16:16:00,73.3,44.0,30.19,West,281,2.0,3.0,35,0.00,,,0.00,Wunderground v.1.15,2013-05-14 20:16:00,
2013-05-14 16:21:00,73.1,44.5,30.19,NNE,23,2.0,-999.0,36,0.00,,,0.00,Wunderground v.1.15,2013-05-14 20:21:00,
2013-05-14 16:22:00,73.5,46.3,30.20,NNW,331,2.0,2.0,38,0.00,,,0.00,Wunderground v.1.15,2013-05-14 20:22:00,
2013-05-14 16:26:00,73.1,44.5,30.19,NNE,23,2.0,-999.0,36,0.00,,,0.00,Wunderground v.1.15,2013-05-14 20:26:00,
2013-05-14 16:28:00,73.1,42.3,30.19,ENE,70,2.0,6.0,33,0.00,,,0.00,Wunderground v.1.15,2013-05-14 20:28:00,
2013-05-14 16:31:00,73.1,44.5,30.19,NNE,23,2.0,-999.0,36,0.00,,,0.00,Wunderground v.1.15,2013-05-14 20:31:00,
2013-05-14 16:34:00,73.2,46.1,30.19,NE,38,2.0,2.0,38,0.00,,,0.00,Wunderground v.1.15,2013-05-14 20:34:00,
2013-05-14 16:36:00,73.1,44.5,30.19,NNE,23,2.0,-999.0,36,0.00,,,0.00,Wunderground v.1.15,2013-05-14 20:36:00,
2013-05-14 16:40:00,73.3,44.7,30.19,NNE,23,2.0,2.0,36,0.00,,,0.00,Wunderground v.1.15,2013-05-14 20:40:00,
2013-05-14 16:41:00,73.1,44.5,30.19,NNE,23,2.0,-999.0,36,0.00,,,0.00,Wunderground v.1.15,2013-05-14 20:41:00,
2013-05-14 16:46:00,73.1,42.3,30.19,NNW,345,2.0,7.0,33,0.00,,,0.00,Wunderground v.1.15,2013-05-14 20:46:00,
2013-05-14 16:51:00,72.9,43.6,30.19,NNE,23,2.0,-999.0,35,0.00,,,0.00,Wunderground v.1.15,2013-05-14 20:51:00,
2013-05-14 16:52:00,73.2,44.6,30.19,NNE,14,2.0,2.0,36,0.00,,,0.00,Wunderground v.1.15,2013-05-14 20:52:00,
2013-05-14 16:56:00,72.9,43.6,30.19,NNE,23,2.0,-999.0,35,0.00,,,0.00,Wunderground v.1.15,2013-05-14 20:56:00,
2013-05-14 16:58:00,73.2,45.4,30.19,NNW,329,2.0,2.0,37,0.00,,,0.00,Wunderground v.1.15,2013-05-14 20:58:00,
2013-05-14 17:01:00,72.9,43.6,30.19,NNE,23,2.0,-999.0,35,0.00,,,0.00,Wunderground v.1.15,2013-05-14 21:01:00,
2013-05-14 17:04:00,72.7,44.9,30.19,NNE,24,2.0,5.0,37,0.00,,,0.00,Wunderground v.1.15,2013-05-14 21:04:00,
2013-05-14 17:06:00,72.9,43.6,30.19,NNE,23,2.0,-999.0,35,0.00,,,0.00,Wunderground v.1.15,2013-05-14 21:06:00,
2013-05-14 17:10:00,72.7,47.0,30.18,NW,320,2.0,2.0,40,0.00,,,0.00,Wunderground v.1.15,2013-05-14 21:10:00,
2013-05-14 17:11:00,72.9,43.6,30.19,NNE,23,2.0,-999.0,35,0.00,,,0.00,Wunderground v.1.15,2013-05-14 21:11:00,
2013-05-14 17:16:00,73.1,46.0,30.18,NNE,25,2.0,2.0,38,0.00,,,0.00,Wunderground v.1.15,2013-05-14 21:16:00,
2013-05-14 17:21:00,72.6,44.1,30.18,NNE,23,2.0,-999.0,36,0.00,,,0.00,Wunderground v.1.15,2013-05-14 21:21:00,
2013-05-14 17:22:00,72.8,43.5,30.18,ENE,60,2.0,3.0,35,0.00,,,0.00,Wunderground v.1.15,2013-05-14 21:22:00,
2013-05-14 17:26:00,72.6,44.1,30.18,NNE,23,2.0,-999.0,36,0.00,,,0.00,Wunderground v.1.15,2013-05-14 21:26:00,
2013-05-14 17:28:00,72.5,44.0,30.18,NNW,329,2.0,3.0,36,0.00,,,0.00,Wunderground v.1.15,2013-05-14 21:28:00,
2013-05-14 17:31:00,72.6,44.1,30.18,NNE,23,2.0,-999.0,36,0.00,,,0.00,Wunderground v.1.15,2013-05-14 21:31:00,
2013-05-14 17:34:00,72.6,44.1,30.18,NNE,25,2.0,2.0,36,0.00,,,0.00,Wunderground v.1.15,2013-05-14 21:34:00,
2013-05-14 17:36:00,72.6,44.1,30.18,NNE,23,2.0,-999.0,36,0.00,,,0.00,Wunderground v.1.15,2013-05-14 21:36:00,
2013-05-14 17:40:00,72.4,43.9,30.18,NNW,341,2.0,2.0,36,0.00,,,0.00,Wunderground v.1.15,2013-05-14 21:40:00,
2013-05-14 17:41:00,72.6,44.1,30.18,NNE,23,2.0,-999.0,36,0.00,,,0.00,Wunderground v.1.15,2013-05-14 21:41:00,
2013-05-14 17:46:00,71.9,43.5,30.18,NNE,27,2.0,5.0,36,0.00,,,0.00,Wunderground v.1.15,2013-05-14 21:46:00,
2013-05-14 17:51:00,71.5,45.2,30.18,NE,45,2.0,-999.0,39,0.00,,,0.00,Wunderground v.1.15,2013-05-14 21:51:00,
2013-05-14 17:52:00,71.5,43.1,30.18,NNE,16,2.0,3.0,36,0.00,,,0.00,Wunderground v.1.15,2013-05-14 21:52:00,
2013-05-14 17:56:00,71.5,45.2,30.18,NE,45,2.0,-999.0,39,0.00,,,0.00,Wunderground v.1.15,2013-05-14 21:56:00,
2013-05-14 17:58:00,71.5,45.9,30.18,ENE,62,2.0,4.0,40,0.00,,,0.00,Wunderground v.1.15,2013-05-14 21:58:00,
2013-05-14 18:01:00,71.5,45.2,30.18,NE,45,2.0,-999.0,39,0.00,,,0.00,Wunderground v.1.15,2013-05-14 22:01:00,
2013-05-14 18:04:00,71.4,44.5,30.18,North,1,2.0,2.0,38,0.00,,,0.00,Wunderground v.1.15,2013-05-14 22:04:00,
2013-05-14 18:06:00,71.5,45.2,30.18,NE,45,2.0,-999.0,39,0.00,,,0.00,Wunderground v.1.15,2013-05-14 22:06:00,
2013-05-14 18:10:00,71.6,45.3,30.18,NE,41,2.0,2.0,39,0.00,,,0.00,Wunderground v.1.15,2013-05-14 22:10:00,
2013-05-14 18:11:00,71.5,45.2,30.18,NE,45,2.0,-999.0,39,0.00,,,0.00,Wunderground v.1.15,2013-05-14 22:11:00,
2013-05-14 18:16:00,71.8,44.8,30.18,NNW,345,2.0,2.0,38,0.00,,,0.00,Wunderground v.1.15,2013-05-14 22:16:00,
2013-05-14 18:21:00,71.9,44.2,30.18,NNE,23,2.0,-999.0,37,0.00,,,0.00,Wunderground v.1.15,2013-05-14 22:21:00,
2013-05-14 18:22:00,72.0,45.0,30.18,NNE,17,2.0,3.0,38,0.00,,,0.00,Wunderground v.1.15,2013-05-14 22:22:00,
2013-05-14 18:26:00,71.9,44.2,30.18,NNE,23,2.0,-999.0,37,0.00,,,0.00,Wunderground v.1.15,2013-05-14 22:26:00,
2013-05-14 18:28:00,72.0,44.3,30.18,NW,310,1.0,3.0,37,0.00,,,0.00,Wunderground v.1.15,2013-05-14 22:28:00,
2013-05-14 18:31:00,71.9,44.2,30.18,NNE,23,2.0,-999.0,37,0.00,,,0.00,Wunderground v.1.15,2013-05-14 22:31:00,
2013-05-14 18:34:00,71.8,46.2,30.18,NNE,16,2.0,2.0,40,0.00,,,0.00,Wunderground v.1.15,2013-05-14 22:34:00,
2013-05-14 18:36:00,71.9,44.2,30.18,NNE,23,2.0,-999.0,37,0.00,,,0.00,Wunderground v.1.15,2013-05-14 22:36:00,
2013-05-14 18:40:00,71.6,44.6,30.18,North,4,2.0,2.0,38,0.00,,,0.00,Wunderground v.1.15,2013-05-14 22:40:00,
2013-05-14 18:41:00,71.9,44.2,30.18,NNE,23,2.0,-999.0,37,0.00,,,0.00,Wunderground v.1.15,2013-05-14 22:41:00,
2013-05-14 18:46:00,71.5,45.9,30.18,NW,314,2.0,3.0,40,0.00,,,0.00,Wunderground v.1.15,2013-05-14 22:46:00,
2013-05-14 18:51:00,71.4,45.8,30.18,NE,45,2.0,-999.0,40,0.00,,,0.00,Wunderground v.1.15,2013-05-14 22:51:00,
2013-05-14 18:52:00,71.6,45.3,30.18,North,3,2.0,2.0,39,0.00,,,0.00,Wunderground v.1.15,2013-05-14 22:52:00,
2013-05-14 18:56:00,71.4,45.8,30.18,NE,45,2.0,-999.0,40,0.00,,,0.00,Wunderground v.1.15,2013-05-14 22:56:00,
2013-05-14 18:58:00,71.5,44.5,30.18,WNW,299,2.0,2.0,38,0.00,,,0.00,Wunderground v.1.15,2013-05-14 22:58:00,
2013-05-14 19:01:00,71.4,45.8,30.18,NE,45,2.0,-999.0,40,0.00,,,0.00,Wunderground v.1.15,2013-05-14 23:01:00,
2013-05-14 19:04:00,71.2,45.6,30.18,NNW,339,1.0,2.0,40,0.00,,,0.00,Wunderground v.1.15,2013-05-14 23:04:00,
2013-05-14 19:06:00,71.4,45.8,30.18,NE,45,2.0,-999.0,40,0.00,,,0.00,Wunderground v.1.15,2013-05-14 23:06:00,
2013-05-14 19:10:00,70.9,44.0,30.18,North,6,1.0,1.0,38,0.00,,,0.00,Wunderground v.1.15,2013-05-14 23:10:00,
2013-05-14 19:11:00,71.4,45.8,30.18,NE,45,2.0,-999.0,40,0.00,,,0.00,Wunderground v.1.15,2013-05-14 23:11:00,
2013-05-14 19:16:00,70.6,45.1,30.18,NNE,15,2.0,2.0,40,0.00,,,0.00,Wunderground v.1.15,2013-05-14 23:16:00,
2013-05-14 19:21:00,69.8,45.0,30.18,North,0,1.0,-999.0,41,0.00,,,0.00,Wunderground v.1.15,2013-05-14 23:21:00,
2013-05-14 19:22:00,70.3,45.5,30.18,NNW,344,2.0,2.0,41,0.00,,,0.00,Wunderground v.1.15,2013-05-14 23:22:00,
2013-05-14 19:26:00,69.8,45.0,30.18,North,0,1.0,-999.0,41,0.00,,,0.00,Wunderground v.1.15,2013-05-14 23:26:00,
2013-05-14 19:28:00,69.9,45.1,30.18,North,359,2.0,2.0,41,0.00,,,0.00,Wunderground v.1.15,2013-05-14 23:28:00,
2013-05-14 19:31:00,69.8,45.0,30.18,North,0,1.0,-999.0,41,0.00,,,0.00,Wunderground v.1.15,2013-05-14 23:31:00,
2013-05-14 19:34:00,69.7,44.9,30.18,North,6,1.0,2.0,41,0.00,,,0.00,Wunderground v.1.15,2013-05-14 23:34:00,
2013-05-14 19:36:00,69.8,45.0,30.18,North,0,1.0,-999.0,41,0.00,,,0.00,Wunderground v.1.15,2013-05-14 23:36:00,
2013-05-14 19:40:00,69.4,45.3,30.17,NNW,335,1.0,1.0,42,0.00,,,0.00,Wunderground v.1.15,2013-05-14 23:40:00,
2013-05-14 19:41:00,69.8,45.0,30.18,North,0,1.0,-999.0,41,0.00,,,0.00,Wunderground v.1.15,2013-05-14 23:41:00,
2013-05-14 19:46:00,69.2,45.1,30.18,NW,309,1.0,3.0,42,0.00,,,0.00,Wunderground v.1.15,2013-05-14 23:46:00,
2013-05-14 19:51:00,68.5,45.1,30.17,NW,315,1.0,-999.0,43,0.00,,,0.00,Wunderground v.1.15,2013-05-14 23:51:00,
2013-05-14 19:52:00,68.9,44.9,30.17,NNW,327,0.0,1.0,42,0.00,,,0.00,Wunderground v.1.15,2013-05-14 23:52:00,
2013-05-14 19:56:00,68.5,45.1,30.17,NW,315,1.0,-999.0,43,0.00,,,0.00,Wunderground v.1.15,2013-05-14 23:56:00,
2013-05-14 19:58:00,68.6,44.6,30.17,NW,316,1.0,2.0,42,0.00,,,0.00,Wunderground v.1.15,2013-05-14 23:58:00,
2013-05-14 20:01:00,68.5,45.1,30.17,NW,315,1.0,-999.0,43,0.00,,,0.00,Wunderground v.1.15,2013-05-15 00:01:00,
2013-05-14 20:04:00,68.4,44.4,30.17,NW,322,1.0,2.0,42,0.00,,,0.00,Wunderground v.1.15,2013-05-15 00:04:00,
2013-05-14 20:06:00,68.5,45.1,30.17,NW,315,1.0,-999.0,43,0.00,,,0.00,Wunderground v.1.15,2013-05-15 00:06:00,
2013-05-14 20:10:00,68.1,44.7,30.16,NW,308,1.0,1.0,43,0.00,,,0.00,Wunderground v.1.15,2013-05-15 00:10:00,
2013-05-14 20:11:00,68.5,45.1,30.17,NW,315,1.0,-999.0,43,0.00,,,0.00,Wunderground v.1.15,2013-05-15 00:11:00,
2013-05-14 20:16:00,67.8,44.5,30.16,North,351,1.0,3.0,43,0.00,,,0.00,Wunderground v.1.15,2013-05-15 00:16:00,
2013-05-14 20:21:00,67.0,45.5,30.16,NW,315,1.0,-999.0,46,0.00,,,0.00,Wunderground v.1.15,2013-05-15 00:21:00,
2013-05-14 20:22:00,67.6,44.9,30.16,NW,315,1.0,1.0,44,0.00,,,0.00,Wunderground v.1.15,2013-05-15 00:22:00,
2013-05-14 20:26:00,67.0,45.5,30.16,NW,315,1.0,-999.0,46,0.00,,,0.00,Wunderground v.1.15,2013-05-15 00:26:00,
2013-05-14 20:28:00,67.2,44.5,30.16,NW,316,0.0,1.0,44,0.00,,,0.00,Wunderground v.1.15,2013-05-15 00:28:00,
2013-05-14 20:31:00,67.0,45.5,30.16,NW,315,1.0,-999.0,46,0.00,,,0.00,Wunderground v.1.15,2013-05-15 00:31:00,
2013-05-14 20:34:00,66.8,45.3,30.16,NW,315,0.0,1.0,46,0.00,,,0.00,Wunderground v.1.15,2013-05-15 00:34:00,
2013-05-14 20:36:00,67.0,45.5,30.16,NW,315,1.0,-999.0,46,0.00,,,0.00,Wunderground v.1.15,2013-05-15 00:36:00,
2013-05-14 20:40:00,66.4,45.0,30.16,NW,316,1.0,1.0,46,0.00,,,0.00,Wunderground v.1.15,2013-05-15 00:40:00,
2013-05-14 20:41:00,67.0,45.5,30.16,NW,315,1.0,-999.0,46,0.00,,,0.00,Wunderground v.1.15,2013-05-15 00:41:00,
2013-05-14 20:46:00,66.1,45.8,30.15,NW,309,0.0,1.0,48,0.00,,,0.00,Wunderground v.1.15,2013-05-15 00:46:00,
2013-05-14 20:51:00,65.3,45.1,30.15,NW,315,0.0,-999.0,48,0.00,,,0.00,Wunderground v.1.15,2013-05-15 00:51:00,
2013-05-14 20:52:00,65.7,45.5,30.15,NW,312,0.0,1.0,48,0.00,,,0.00,Wunderground v.1.15,2013-05-15 00:52:00,
2013-05-14 20:56:00,65.3,45.1,30.15,NW,315,0.0,-999.0,48,0.00,,,0.00,Wunderground v.1.15,2013-05-15 00:56:00,
2013-05-14 20:58:00,65.4,44.6,30.15,NW,326,0.0,1.0,47,0.00,,,0.00,Wunderground v.1.15,2013-05-15 00:58:00,
2013-05-14 21:01:00,65.3,45.1,30.15,NW,315,0.0,-999.0,48,0.00,,,0.00,Wunderground v.1.15,2013-05-15 01:01:00,
2013-05-14 21:04:00,65.1,44.9,30.15,NW,308,0.0,0.0,48,0.00,,,0.00,Wunderground v.1.15,2013-05-15 01:04:00,
2013-05-14 21:06:00,65.3,45.1,30.15,NW,315,0.0,-999.0,48,0.00,,,0.00,Wunderground v.1.15,2013-05-15 01:06:00,
2013-05-14 21:10:00,64.8,45.2,30.15,WNW,282,0.0,2.0,49,0.00,,,0.00,Wunderground v.1.15,2013-05-15 01:10:00,
2013-05-14 21:11:00,65.3,45.1,30.15,NW,315,0.0,-999.0,48,0.00,,,0.00,Wunderground v.1.15,2013-05-15 01:11:00,
2013-05-14 21:16:00,64.6,45.0,30.15,NW,318,0.0,2.0,49,0.00,,,0.00,Wunderground v.1.15,2013-05-15 01:16:00,
2013-05-14 21:21:00,64.1,45.1,30.15,NW,315,0.0,-999.0,50,0.00,,,0.00,Wunderground v.1.15,2013-05-15 01:21:00,
2013-05-14 21:22:00,64.3,45.3,30.15,NW,322,0.0,1.0,50,0.00,,,0.00,Wunderground v.1.15,2013-05-15 01:22:00,
2013-05-14 21:26:00,64.1,45.1,30.15,NW,315,0.0,-999.0,50,0.00,,,0.00,Wunderground v.1.15,2013-05-15 01:26:00,
2013-05-14 21:28:00,64.2,45.2,30.15,NNW,337,1.0,1.0,50,0.00,,,0.00,Wunderground v.1.15,2013-05-15 01:28:00,
2013-05-14 21:31:00,64.1,45.1,30.15,NW,315,0.0,-999.0,50,0.00,,,0.00,Wunderground v.1.15,2013-05-15 01:31:00,
2013-05-14 21:34:00,64.1,45.1,30.15,WNW,297,0.0,1.0,50,0.00,,,0.00,Wunderground v.1.15,2013-05-15 01:34:00,
2013-05-14 21:36:00,64.1,45.1,30.15,NW,315,0.0,-999.0,50,0.00,,,0.00,Wunderground v.1.15,2013-05-15 01:36:00,
2013-05-14 21:40:00,64.0,45.5,30.16,WNW,302,0.0,0.0,51,0.00,,,0.00,Wunderground v.1.15,2013-05-15 01:40:00,
2013-05-14 21:41:00,64.1,45.1,30.15,NW,315,0.0,-999.0,50,0.00,,,0.00,Wunderground v.1.15,2013-05-15 01:41:00,
2013-05-14 21:46:00,63.8,45.3,30.16,West,280,0.0,0.0,51,0.00,,,0.00,Wunderground v.1.15,2013-05-15 01:46:00,
2013-05-14 21:51:00,63.4,45.5,30.16,WNW,293,0.0,-999.0,52,0.00,,,0.00,Wunderground v.1.15,2013-05-15 01:51:00,
2013-05-14 21:52:00,63.6,45.6,30.16,West,280,0.0,1.0,52,0.00,,,0.00,Wunderground v.1.15,2013-05-15 01:52:00,
2013-05-14 21:56:00,63.4,45.5,30.16,WNW,293,0.0,-999.0,52,0.00,,,0.00,Wunderground v.1.15,2013-05-15 01:56:00,
2013-05-14 21:58:00,63.4,45.5,30.16,WNW,284,0.0,1.0,52,0.00,,,0.00,Wunderground v.1.15,2013-05-15 01:58:00,
2013-05-14 22:01:00,63.4,45.5,30.16,WNW,293,0.0,-999.0,52,0.00,,,0.00,Wunderground v.1.15,2013-05-15 02:01:00,
2013-05-14 22:04:00,63.3,45.4,30.16,WNW,284,0.0,0.0,52,0.00,,,0.00,Wunderground v.1.15,2013-05-15 02:04:00,
2013-05-14 22:06:00,63.4,45.5,30.16,WNW,293,0.0,-999.0,52,0.00,,,0.00,Wunderground v.1.15,2013-05-15 02:06:00,
2013-05-14 22:10:00,63.0,45.6,30.16,WNW,284,0.0,0.0,53,0.00,,,0.00,Wunderground v.1.15,2013-05-15 02:10:00,
2013-05-14 22:11:00,63.4,45.5,30.16,WNW,293,0.0,-999.0,52,0.00,,,0.00,Wunderground v.1.15,2013-05-15 02:11:00,
2013-05-14 22:16:00,62.6,45.2,30.16,WNW,285,0.0,0.0,53,0.00,,,0.00,Wunderground v.1.15,2013-05-15 02:16:00,
2013-05-14 22:21:00,62.3,45.4,30.16,WNW,293,0.0,-999.0,54,0.00,,,0.00,Wunderground v.1.15,2013-05-15 02:21:00,
2013-05-14 22:22:00,62.4,45.5,30.16,WNW,295,0.0,0.0,54,0.00,,,0.00,Wunderground v.1.15,2013-05-15 02:22:00,
2013-05-14 22:26:00,62.3,45.4,30.16,WNW,293,0.0,-999.0,54,0.00,,,0.00,Wunderground v.1.15,2013-05-15 02:26:00,
2013-05-14 22:28:00,62.2,44.9,30.16,NW,308,0.0,0.0,53,0.00,,,0.00,Wunderground v.1.15,2013-05-15 02:28:00,
2013-05-14 22:31:00,62.3,45.4,30.16,WNW,293,0.0,-999.0,54,0.00,,,0.00,Wunderground v.1.15,2013-05-15 02:31:00,
2013-05-14 22:34:00,62.3,45.4,30.17,WNW,297,0.0,2.0,54,0.00,,,0.00,Wunderground v.1.15,2013-05-15 02:34:00,
2013-05-14 22:36:00,62.3,45.4,30.16,WNW,293,0.0,-999.0,54,0.00,,,0.00,Wunderground v.1.15,2013-05-15 02:36:00,
2013-05-14 22:40:00,62.3,45.4,30.17,NW,309,0.0,0.0,54,0.00,,,0.00,Wunderground v.1.15,2013-05-15 02:40:00,
2013-05-14 22:41:00,62.3,45.4,30.16,WNW,293,0.0,-999.0,54,0.00,,,0.00,Wunderground v.1.15,2013-05-15 02:41:00,
2013-05-14 22:46:00,62.3,45.4,30.16,WSW,258,0.0,0.0,54,0.00,,,0.00,Wunderground v.1.15,2013-05-15 02:46:00,
2013-05-14 22:51:00,62.1,45.7,30.15,WNW,293,0.0,-999.0,55,0.00,,,0.00,Wunderground v.1.15,2013-05-15 02:51:00,
2013-05-14 22:52:00,62.1,45.7,30.16,WNW,291,0.0,0.0,55,0.00,,,0.00,Wunderground v.1.15,2013-05-15 02:52:00,
2013-05-14 22:56:00,62.1,45.7,30.15,WNW,293,0.0,-999.0,55,0.00,,,0.00,Wunderground v.1.15,2013-05-15 02:56:00,
2013-05-14 22:58:00,62.1,45.2,30.15,NW,309,1.0,2.0,54,0.00,,,0.00,Wunderground v.1.15,2013-05-15 02:58:00,
2013-05-14 23:01:00,62.1,45.7,30.15,WNW,293,0.0,-999.0,55,0.00,,,0.00,Wunderground v.1.15,2013-05-15 03:01:00,
2013-05-14 23:04:00,62.0,45.6,30.15,NW,308,0.0,2.0,55,0.00,,,0.00,Wunderground v.1.15,2013-05-15 03:04:00,
2013-05-14 23:06:00,62.1,45.7,30.15,WNW,293,0.0,-999.0,55,0.00,,,0.00,Wunderground v.1.15,2013-05-15 03:06:00,
2013-05-14 23:10:00,61.8,45.9,30.15,WNW,303,0.0,2.0,56,0.00,,,0.00,Wunderground v.1.15,2013-05-15 03:10:00,
2013-05-14 23:11:00,62.1,45.7,30.15,WNW,293,0.0,-999.0,55,0.00,,,0.00,Wunderground v.1.15,2013-05-15 03:11:00,
2013-05-14 23:16:00,61.7,45.8,30.15,WNW,300,0.0,2.0,56,0.00,,,0.00,Wunderground v.1.15,2013-05-15 03:16:00,
2013-05-14 23:21:00,61.6,45.7,30.15,NW,315,0.0,-999.0,56,0.00,,,0.00,Wunderground v.1.15,2013-05-15 03:21:00,
2013-05-14 23:22:00,61.7,45.4,30.15,NW,318,0.0,1.0,55,0.00,,,0.00,Wunderground v.1.15,2013-05-15 03:22:00,
2013-05-14 23:26:00,61.6,45.7,30.15,NW,315,0.0,-999.0,56,0.00,,,0.00,Wunderground v.1.15,2013-05-15 03:26:00,
2013-05-14 23:28:00,61.6,45.7,30.15,NW,326,0.0,2.0,56,0.00,,,0.00,Wunderground v.1.15,2013-05-15 03:28:00,
2013-05-14 23:31:00,61.6,45.7,30.15,NW,315,0.0,-999.0,56,0.00,,,0.00,Wunderground v.1.15,2013-05-15 03:31:00,
2013-05-14 23:34:00,61.6,45.7,30.15,NW,312,0.0,2.0,56,0.00,,,0.00,Wunderground v.1.15,2013-05-15 03:34:00,
2013-05-14 23:36:00,61.6,45.7,30.15,NW,315,0.0,-999.0,56,0.00,,,0.00,Wunderground v.1.15,2013-05-15 03:36:00,
2013-05-14 23:40:00,61.6,45.7,30.15,NW,308,1.0,1.0,56,0.00,,,0.00,Wunderground v.1.15,2013-05-15 03:40:00,
2013-05-14 23:41:00,61.6,45.7,30.15,NW,315,0.0,-999.0,56,0.00,,,0.00,Wunderground v.1.15,2013-05-15 03:41:00,
2013-05-14 23:46:00,61.6,46.2,30.15,NW,316,0.0,1.0,57,0.00,,,0.00,Wunderground v.1.15,2013-05-15 03:46:00,
2013-05-14 23:51:00,61.3,45.9,30.14,NW,315,0.0,-999.0,57,0.00,,,0.00,Wunderground v.1.15,2013-05-15 03:51:00,
2013-05-14 23:52:00,61.5,45.7,30.15,NW,316,0.0,0.0,56,0.00,,,0.00,Wunderground v.1.15,2013-05-15 03:52:00,
2013-05-14 23:56:00,61.3,45.9,30.14,NW,315,0.0,-999.0,57,0.00,,,0.00,Wunderground v.1.15,2013-05-15 03:56:00,
2013-05-14 23:58:00,61.3,45.9,30.15,NW,316,0.0,0.0,57,0.00,,,0.00,Wunderground v.1.15,2013-05-15 03:58:00,